GFSCGP_500_spd_000.txt.gz
Wind_Speed
47 49 40 37 42 46 44 44 45 34 35 53 48 47 40 39 32 33 30 28 33 37 38 37 35 37 40 41 40 39 40 42 44 46 47 48 47 48 47 47 45 43 42 41
52 55 41 45 46 50 48 50 49 47 42 52 52 52 44 39 36 27 27 28 32 38 40 36 37 37 41 41 39 40 41 44 47 48 50 50 50 50 51 49 46 44 43 43
54 55 50 50 51 51 52 53 53 54 48 55 53 57 44 36 32 28 26 29 31 35 35 28 30 34 37 39 41 41 46 48 47 49 51 51 51 51 50 51 48 45 45 43
57 54 53 55 55 49 56 52 53 52 54 59 55 64 47 40 37 35 31 31 31 31 32 31 34 36 38 42 44 45 49 50 51 51 50 51 50 52 51 49 48 48 47 46
50 49 51 51 48 47 53 51 51 55 59 63 62 61 58 51 43 41 37 40 35 33 29 32 33 36 37 42 46 50 54 55 53 51 50 51 52 53 51 50 51 49 49 48
49 50 54 55 53 53 56 57 58 59 61 70 64 60 57 54 50 50 52 48 42 36 35 34 33 35 37 42 47 50 50 52 51 52 51 51 51 52 54 55 55 52 52 53
49 51 52 54 54 52 52 57 59 64 67 68 65 66 61 57 55 51 53 53 45 44 43 38 27 34 37 40 46 49 52 52 52 48 45 43 46 51 54 55 55 53 52 53
55 56 50 48 48 49 52 53 57 61 64 66 65 65 58 55 54 55 57 55 49 45 37 31 37 35 40 43 46 50 52 54 52 50 46 47 48 47 49 50 51 52 53 53
56 58 57 55 52 51 56 59 53 59 61 65 63 65 61 59 60 55 56 58 47 40 40 38 38 41 48 48 52 55 56 57 56 53 48 48 46 44 48 52 52 54 57 57
64 61 56 58 59 63 62 58 60 64 67 70 67 64 59 64 69 66 55 52 54 49 46 44 45 45 48 55 55 58 59 55 55 53 48 47 47 44 46 51 55 59 61 63
62 64 64 64 63 60 62 64 66 67 71 74 73 63 64 69 66 64 62 59 55 58 58 58 51 52 53 58 59 56 58 58 55 52 51 52 50 48 51 56 61 63 63 64
66 71 77 73 68 65 70 71 70 72 73 76 73 72 68 65 62 61 62 63 60 59 60 64 60 55 57 61 61 61 60 57 53 52 54 51 52 55 59 60 64 64 64 66
77 80 82 80 71 70 70 68 68 70 69 75 77 77 62 58 61 59 65 61 57 61 64 66 65 63 61 58 60 60 58 56 57 54 51 53 55 59 61 66 71 70 67 67
67 68 55 55 54 54 67 68 73 67 60 71 75 73 61 60 61 59 56 56 60 62 66 59 61 60 58 56 54 54 59 59 56 54 55 53 58 63 65 68 71 71 69 71
87 74 71 66 70 60 53 57 53 51 61 68 71 73 69 64 62 59 60 63 61 63 53 51 53 54 58 55 54 53 55 57 58 57 58 64 69 72 70 69 69 70 72 69
99 106 98 97 86 87 88 82 81 66 65 66 71 74 68 59 59 61 61 60 48 47 41 48 55 59 56 57 57 63 67 67 62 62 67 68 70 72 73 71 65 60 63 62
98 94 100 97 97 97 87 92 83 74 68 63 64 64 51 53 51 49 46 46 51 57 58 65 60 63 66 65 68 70 69 66 66 67 67 67 69 70 66 61 62 63 62 65
83 83 87 91 89 97 100 95 88 89 84 86 79 71 68 66 58 59 66 66 69 73 76 73 66 73 68 64 67 63 63 64 67 65 62 61 61 66 66 64 59 57 59 65
82 80 80 86 93 95 91 90 88 90 98 92 87 90 89 77 71 74 77 70 65 69 75 74 68 65 62 65 66 64 64 70 66 67 65 59 55 58 54 55 61 66 61 66
80 76 83 84 82 88 80 65 60 63 82 75 82 88 62 54 67 69 66 66 71 63 64 65 65 66 66 69 69 71 68 64 60 62 63 67 67 61 56 53 59 65 66 63
71 72 77 67 66 66 51 42 49 83 85 81 66 58 62 67 71 76 75 74 71 71 65 66 68 71 72 72 73 71 67 59 61 59 61 58 61 61 64 66 67 66 65 67
93 92 88 78 77 98 96 88 90 87 86 78 66 61 58 62 65 68 71 69 70 72 71 70 69 67 71 74 73 67 63 61 62 61 56 57 56 57 60 64 63 65 64 63
63 68 75 85 90 78 73 72 65 66 65 69 71 63 64 69 69 65 63 58 60 60 65 71 69 63 60 65 71 69 65 64 63 64 53 49 52 63 69 72 73 72 72 62
85 69 69 65 59 68 66 61 64 58 64 61 67 70 62 68 65 68 61 57 62 60 53 57 57 58 66 75 75 71 70 70 69 65 65 64 67 68 74 78 80 78 75 68
93 97 102 103 99 100 97 84 85 89 80 83 74 58 68 71 69 61 62 65 67 65 59 62 64 60 64 75 77 75 76 76 78 81 79 82 84 83 86 82 87 88 77 71
80 87 94 101 101 106 109 100 98 105 102 93 90 93 96 99 90 71 66 71 71 71 67 72 75 73 65 73 82 85 84 85 86 82 86 90 93 97 98 95 86 85 84 72

GFSCGP_500_spd_003.txt.gz
Wind_Speed
46 51 48 37 44 46 49 49 52 43 38 53 53 54 40 34 33 33 32 30 29 30 30 30 31 32 34 35 35 34 36 37 35 35 35 36 39 40 40 41 41 42 43 44
47 52 44 44 47 51 53 54 54 53 45 54 56 58 51 40 34 30 28 25 27 32 32 31 33 32 31 32 31 32 35 35 35 35 37 39 42 42 43 44 45 45 43 43
49 50 47 46 48 51 51 55 55 57 52 55 58 63 52 44 38 33 30 33 34 33 33 35 33 33 31 31 33 33 34 36 37 40 41 43 44 45 44 43 44 45 44 43
51 43 43 46 48 44 51 44 49 53 54 60 53 67 53 45 44 38 37 35 33 33 35 38 38 38 37 36 33 34 36 38 41 44 45 47 47 47 46 46 47 48 47 47
46 48 48 49 47 48 52 50 50 52 56 60 63 63 55 50 44 39 36 38 39 36 36 37 34 34 36 38 37 37 39 42 46 50 49 45 44 44 46 49 49 49 48 48
47 47 50 50 48 48 48 52 54 54 56 60 57 58 56 52 51 44 40 38 39 39 35 32 30 32 36 38 38 39 41 42 44 47 48 48 47 47 45 46 48 51 52 52
47 48 48 50 51 48 46 51 56 59 60 61 58 59 55 58 52 50 47 44 45 43 39 42 36 36 36 35 35 39 43 45 47 47 49 52 52 49 46 46 47 53 56 55
57 55 54 51 50 49 52 52 58 58 60 61 61 60 57 61 59 53 53 53 50 49 48 36 30 23 25 33 35 39 43 48 50 53 56 57 57 52 50 50 49 50 55 61
64 64 60 58 55 55 59 60 53 58 59 63 64 66 56 60 60 63 56 59 54 50 39 32 36 35 38 44 42 42 45 51 53 55 57 57 55 52 49 49 44 46 51 54
66 67 65 61 59 62 63 60 59 62 63 64 64 66 67 61 61 63 63 62 51 28 36 53 41 42 50 50 52 50 52 56 56 56 57 56 52 51 48 47 49 49 50 51
66 68 65 62 60 57 58 58 60 63 66 70 72 67 64 64 65 65 63 63 60 57 55 41 48 48 47 59 57 55 54 56 58 55 56 54 54 52 47 48 51 53 54 51
57 63 60 55 52 57 62 63 63 66 69 73 76 75 58 61 65 69 71 63 62 60 57 57 58 60 66 59 58 58 58 58 59 60 56 54 55 52 52 53 54 55 53 53
61 62 60 50 44 42 46 47 51 55 66 73 73 74 55 61 62 63 69 67 65 63 58 57 61 64 61 61 63 63 62 59 60 57 53 50 50 48 49 51 51 50 58 63
74 72 79 70 68 65 70 69 70 56 50 56 58 58 47 52 57 59 62 62 63 65 62 63 65 64 67 69 65 60 63 57 52 48 49 46 46 52 53 54 58 61 62 62
78 87 93 93 94 90 93 92 87 75 81 86 84 86 62 46 41 44 52 58 61 63 66 66 67 66 63 65 66 63 64 59 53 52 53 53 56 60 59 60 62 64 65 65
79 86 84 86 87 90 96 93 93 100 100 93 81 74 72 76 77 78 63 50 51 45 39 42 48 53 54 58 63 60 55 51 57 60 61 58 59 62 61 63 62 61 60 61
74 67 78 77 75 73 77 85 86 89 88 92 84 87 67 66 67 70 76 69 66 67 58 55 59 63 66 63 61 61 64 68 67 68 67 60 60 62 63 63 62 62 64 63
62 69 72 77 67 74 80 64 66 79 88 88 85 74 70 69 70 70 69 74 74 69 63 66 72 76 77 76 74 73 73 70 71 71 66 62 63 61 64 66 59 64 56 54
73 75 76 70 71 72 72 74 77 77 74 69 73 67 67 65 61 65 62 66 69 75 86 84 77 82 85 86 82 76 74 73 71 68 67 67 68 67 65 58 59 57 54 52
84 81 85 89 90 92 86 85 62 56 66 64 66 69 67 59 61 64 62 58 51 62 68 72 79 84 85 87 84 84 80 73 71 73 73 73 70 72 65 65 63 58 56 51
80 79 68 53 56 61 69 77 74 78 77 64 67 67 61 59 63 64 63 65 77 71 75 77 75 77 79 79 75 76 72 71 74 73 76 76 74 71 67 69 69 59 53 45
84 86 85 88 85 80 80 73 76 80 77 71 66 64 66 68 70 76 83 80 77 62 64 69 71 74 78 79 77 69 70 70 70 66 67 70 68 67 69 71 70 67 68 58
77 79 84 87 90 87 84 72 68 61 62 80 89 92 98 91 93 95 83 77 70 67 61 64 60 61 65 69 68 64 70 70 72 74 68 63 68 74 76 74 75 73 74 75
72 72 78 80 80 82 79 79 86 88 91 91 90 90 99 98 86 73 71 76 77 75 63 69 70 65 69 67 69 70 70 70 72 76 63 58 62 71 77 78 77 77 81 79
66 67 71 77 78 80 83 77 75 77 84 83 85 84 78 74 72 75 73 76 83 71 72 74 71 69 66 70 72 71 70 76 81 69 64 72 69 66 75 82 81 80 81 88
54 59 61 65 66 73 78 84 96 101 95 93 90 87 89 84 76 75 67 61 61 65 66 66 78 76 80 75 73 71 71 72 70 72 70 73 79 82 74 79 80 86 87 86

GFSCGP_500_spd_006.txt.gz
Wind_Speed
46 50 47 39 42 45 48 51 53 47 38 48 52 55 50 40 37 36 35 31 27 28 28 32 33 31 28 30 33 35 36 37 37 36 35 34 35 35 33 33 33 34 36 35
47 52 42 43 44 47 50 50 51 49 44 51 54 56 52 46 38 32 33 30 29 32 32 33 34 34 32 33 33 34 37 38 36 37 36 34 35 34 34 35 37 39 39 37
49 50 48 48 48 48 47 50 49 54 52 52 54 58 47 40 38 35 33 33 33 34 36 35 35 37 37 36 38 37 36 37 36 37 36 36 36 36 37 39 41 42 41 41
50 44 45 44 46 40 51 43 51 54 56 58 54 56 46 40 42 38 38 33 30 34 34 34 35 38 39 40 39 39 40 42 38 39 39 39 40 39 41 43 42 41 41 43
47 47 48 50 46 48 52 50 51 53 56 59 61 62 55 46 41 40 31 34 32 28 31 34 36 39 39 39 39 38 36 39 42 43 43 42 41 41 43 42 42 43 44 46
47 46 49 50 51 50 50 53 49 51 55 62 58 57 48 53 48 43 44 39 41 35 32 34 35 36 37 39 41 43 43 44 46 46 44 42 42 44 46 46 44 45 46 50
52 54 53 52 52 53 48 52 58 62 60 62 61 57 52 55 58 55 52 48 44 44 46 42 38 36 38 40 43 46 46 47 47 43 40 41 44 47 49 49 49 48 49 53
66 58 56 55 54 57 57 58 61 65 65 64 62 66 54 60 59 61 59 57 61 51 47 50 42 38 36 30 35 40 40 42 46 46 48 48 50 52 54 54 54 54 49 50
65 68 63 62 60 59 61 66 60 63 65 69 70 69 62 61 62 65 62 58 60 62 49 48 45 33 38 41 36 36 44 47 47 47 49 51 54 56 59 58 55 53 50 50
65 67 68 60 59 62 58 56 60 66 71 72 72 74 69 65 65 67 65 62 61 61 55 24 25 34 45 51 44 44 46 54 56 51 53 57 59 58 60 61 58 55 53 51
76 76 69 68 59 51 52 55 59 64 72 75 77 70 59 63 64 63 61 60 60 52 50 50 53 53 54 50 45 44 52 52 56 57 54 56 58 59 59 60 62 60 55 51
75 77 79 79 73 69 61 54 50 56 59 68 75 78 45 56 57 58 62 58 56 56 50 47 53 55 56 49 49 57 59 58 62 62 58 57 57 57 59 60 56 55 54 55
73 67 75 79 75 76 72 71 65 61 57 68 72 72 55 58 57 48 53 50 48 50 48 51 55 55 57 53 57 62 64 61 64 63 64 63 62 56 52 54 55 52 50 48
71 75 76 78 77 75 80 74 73 74 67 72 79 88 67 50 50 54 70 67 68 58 52 49 50 52 55 59 59 63 65 65 67 67 64 65 62 48 48 50 51 51 55 56
67 72 73 76 71 64 65 71 72 76 83 91 90 90 83 82 81 83 81 80 69 70 64 53 52 56 56 57 57 56 55 54 59 63 67 67 60 45 47 50 53 55 57 57
64 63 60 66 65 62 68 62 58 63 64 68 70 75 62 67 64 62 81 73 62 58 72 75 71 66 65 58 56 54 56 57 59 60 62 63 67 58 54 57 57 56 59 60
66 67 67 65 52 56 65 62 63 57 55 67 68 60 58 52 52 59 74 84 89 78 83 95 92 84 72 77 71 74 73 73 73 67 65 65 63 64 67 64 60 60 60 63
67 68 69 78 78 82 80 76 69 64 54 59 61 61 60 61 57 62 70 75 79 80 78 79 82 84 80 78 79 80 81 80 76 77 78 73 73 70 70 61 59 61 64 64
68 69 73 77 83 90 86 81 61 65 71 66 64 76 85 85 79 73 69 69 67 66 73 77 78 82 85 82 81 82 81 81 80 80 82 86 84 77 73 69 59 64 68 66
66 68 73 77 82 85 82 83 86 91 91 90 97 93 98 94 77 73 59 61 61 63 66 76 78 77 76 66 59 64 68 70 74 80 85 85 79 75 68 61 62 65 66 70
77 75 73 75 81 83 85 84 77 72 77 76 77 82 71 74 87 83 88 76 74 69 65 71 75 73 68 57 60 66 73 78 83 85 85 77 67 67 67 64 63 65 64 66
76 75 75 74 74 78 76 81 83 89 82 75 87 86 76 70 70 72 69 70 76 68 64 65 71 70 70 65 71 84 90 85 85 86 83 76 73 77 76 73 68 65 65 64
70 68 72 74 77 74 70 74 77 83 87 98 107 108 107 104 99 91 92 91 80 72 69 68 69 67 70 76 74 70 74 74 75 77 74 81 79 75 72 73 69 68 69 70
65 61 67 68 66 70 71 72 75 80 84 88 92 95 101 102 98 95 91 81 94 88 86 87 87 88 79 76 74 72 68 71 71 73 75 75 74 73 75 72 71 72 74 74
62 63 63 64 63 60 62 65 70 76 83 88 91 93 94 94 90 92 96 101 101 99 99 96 101 97 93 81 87 86 80 80 76 77 75 80 80 80 79 78 73 72 71 73
56 58 57 62 55 53 57 56 59 65 71 76 82 85 89 96 100 99 100 102 103 101 98 96 99 105 99 95 96 86 77 83 86 81 83 88 90 84 85 80 81 75 68 74

GFSCGP_500_spd_009.txt.gz
Wind_Speed
49 53 50 40 43 47 51 51 50 45 40 49 49 50 44 38 34 35 35 36 36 37 32 33 35 37 38 34 33 35 35 34 35 36 38 39 39 39 39 39 38 35 33 33
47 52 45 47 47 49 51 52 53 54 50 54 53 51 48 43 39 32 30 30 29 32 32 33 37 40 39 37 36 37 38 36 38 39 39 39 38 40 40 38 34 34 36 36
48 50 48 51 51 51 50 53 54 56 52 53 55 55 49 42 36 34 32 34 35 32 34 35 39 40 41 40 41 41 41 42 41 40 40 40 40 42 38 36 38 40 39 38
51 44 44 49 52 45 53 44 49 52 56 57 55 53 47 42 41 39 38 38 32 33 31 33 37 39 38 39 40 42 44 46 46 44 44 44 44 45 42 44 43 41 40 40
47 47 45 48 48 52 53 55 54 54 57 58 56 60 55 52 46 39 34 32 36 30 34 34 37 40 40 40 41 43 43 44 46 45 45 45 46 47 47 47 45 43 42 41
46 49 52 48 49 52 53 54 56 57 58 60 57 57 51 55 57 59 53 44 48 51 42 38 38 42 41 43 43 42 41 43 42 44 47 49 50 48 47 44 43 43 43 44
54 51 53 51 50 51 52 55 58 63 65 62 63 61 56 61 60 65 65 65 62 58 57 54 44 44 48 43 46 45 46 46 46 46 47 49 52 52 47 45 44 45 47 48
63 60 61 58 55 56 56 57 61 64 65 68 68 73 64 62 63 67 66 68 67 69 63 59 56 49 47 47 43 45 47 43 42 41 44 48 50 50 47 47 47 49 51 51
64 68 68 65 61 60 61 60 54 60 62 70 76 76 73 68 68 66 67 72 72 66 65 60 53 39 35 36 36 42 45 39 39 46 52 49 45 46 51 52 52 55 56 55
66 70 69 71 70 71 68 67 65 63 65 67 67 68 75 75 72 70 70 68 67 65 59 44 35 39 33 38 39 47 45 46 46 46 53 58 58 54 56 56 58 61 62 60
71 73 76 78 76 72 72 74 76 75 75 78 78 75 59 61 69 69 65 65 61 51 51 55 56 48 35 39 41 47 49 55 54 50 53 56 59 61 64 63 60 60 59 60
71 70 64 77 77 74 75 73 70 69 73 70 67 71 59 53 47 57 57 61 53 45 48 52 39 33 40 53 58 61 62 61 59 54 57 55 58 63 63 60 61 60 61 61
69 69 70 75 76 74 63 61 67 72 71 75 78 78 66 61 60 60 66 65 58 59 57 57 56 49 53 57 61 63 64 64 63 62 60 62 62 63 66 63 63 63 65 65
68 72 75 69 69 73 75 75 70 73 76 76 74 74 68 61 57 61 64 73 73 70 73 76 71 70 73 79 66 64 60 59 59 65 66 66 68 69 71 69 70 69 64 63
62 67 68 71 73 71 74 72 68 65 67 70 70 72 72 68 65 69 71 79 82 83 86 87 90 85 73 78 78 70 72 62 57 62 64 64 70 69 69 71 68 67 64 59
57 60 66 67 64 65 71 71 72 66 68 65 77 79 69 69 64 60 65 75 79 77 78 86 91 94 88 71 70 70 73 79 81 81 63 57 59 62 66 64 61 65 63 55
66 68 69 76 73 78 82 73 67 67 66 67 68 69 61 59 63 67 67 69 71 80 81 82 85 89 87 81 66 70 74 78 82 77 72 73 73 78 73 75 67 69 65 65
65 64 68 76 73 82 77 71 73 73 79 84 85 78 64 56 52 52 55 63 64 66 73 80 79 77 81 82 76 76 77 84 85 83 80 80 81 79 75 74 71 74 73 69
67 66 72 77 78 81 79 76 77 77 79 80 83 89 94 96 89 77 84 80 70 66 73 74 73 78 79 78 79 75 81 83 87 92 88 86 85 85 85 82 74 79 78 76
69 70 73 76 79 82 79 77 77 79 82 83 85 87 90 93 94 92 101 102 98 88 85 82 84 91 99 89 75 61 62 70 80 88 92 91 92 87 80 77 71 75 73 67
71 72 71 71 75 76 74 73 74 77 83 83 88 91 93 94 95 94 94 91 85 86 91 95 95 84 82 78 75 71 74 75 83 80 77 59 58 59 61 64 68 72 75 76
68 67 67 68 70 74 72 73 74 77 81 82 83 85 88 90 90 90 87 80 76 75 74 66 73 73 72 70 78 76 72 85 86 80 76 63 67 67 66 69 71 74 74 67
66 63 66 69 72 72 69 68 69 72 75 76 81 83 86 87 89 90 92 94 98 98 91 88 86 84 79 74 78 74 76 79 82 85 80 74 64 66 71 69 74 68 65 63
62 61 68 69 67 68 67 67 67 70 73 75 77 79 82 85 87 89 90 91 94 94 99 112 113 107 103 100 96 93 93 89 91 75 77 71 66 65 69 74 71 73 67 65
58 61 60 65 64 62 64 62 64 64 66 68 69 71 75 78 80 83 86 87 90 91 93 98 104 108 105 100 100 91 93 96 81 81 80 69 80 69 76 78 82 84 74 71
56 57 60 63 59 50 58 62 59 60 61 62 64 65 66 69 72 73 76 77 81 84 88 91 96 101 102 103 100 95 97 103 95 82 85 79 81 79 77 82 88 82 77 76

GFSCGP_500_spd_012.txt.gz
Wind_Speed
51 54 51 43 46 49 50 52 52 48 45 52 49 50 47 39 38 31 33 36 36 36 36 36 40 42 45 46 41 38 37 37 38 38 37 38 36 36 39 41 40 41 40 40
51 55 47 50 49 50 50 52 52 53 51 53 54 53 49 43 35 36 30 25 29 28 29 31 36 38 41 45 43 39 39 41 42 43 41 39 39 39 39 40 40 40 40 39
52 54 47 49 51 49 50 52 51 55 55 55 55 54 52 40 38 30 35 37 31 35 36 35 39 42 44 45 46 45 44 45 45 46 45 45 43 42 42 39 41 43 43 42
50 46 46 47 47 43 51 45 49 51 55 55 54 55 52 45 38 37 33 36 29 26 25 29 30 33 38 41 41 46 47 47 47 49 50 48 47 47 46 45 47 46 45 44
43 42 43 49 44 49 55 52 49 50 54 58 57 58 54 53 54 47 42 41 42 43 41 40 40 44 41 44 46 44 45 46 45 47 49 51 51 50 49 51 52 50 49 47
50 54 53 51 50 50 52 55 55 53 53 60 58 56 58 56 56 56 57 56 55 57 58 56 51 44 45 47 48 49 50 48 48 47 45 46 49 50 51 51 53 53 52 49
57 56 56 57 56 52 48 52 58 62 61 58 60 61 61 61 59 61 60 61 65 65 64 62 60 58 57 52 51 54 55 56 50 49 51 47 48 49 53 55 53 52 54 51
64 62 60 57 56 57 58 60 63 64 65 65 64 67 61 60 60 61 64 65 68 66 63 65 62 62 64 64 62 58 61 60 57 52 51 52 50 50 53 51 49 49 48 49
69 71 70 66 63 63 64 63 59 63 62 67 69 70 68 62 62 64 65 64 62 61 66 70 68 64 60 62 57 42 45 54 61 55 53 52 56 49 45 47 49 50 53 48
68 72 72 71 68 70 68 68 66 67 67 73 76 76 74 65 64 68 68 65 63 60 59 61 64 65 65 63 52 57 55 48 50 55 57 58 53 48 46 48 51 51 53 53
68 70 72 75 75 72 71 73 72 65 60 62 71 79 68 68 66 66 64 65 68 65 63 61 52 59 62 62 60 56 58 55 54 58 63 63 62 59 56 55 58 62 64 67
64 68 69 69 66 67 72 71 68 63 70 75 76 75 68 67 68 65 64 65 66 68 67 59 62 62 59 60 53 56 56 55 58 61 65 63 63 60 65 68 67 65 68 70
65 69 68 66 63 67 73 70 71 74 71 73 74 73 58 60 65 76 75 76 75 75 77 75 71 67 60 60 54 53 57 61 62 62 68 69 71 70 70 70 72 74 73 70
65 60 61 69 73 71 76 74 71 70 74 74 75 78 76 76 76 72 73 73 74 76 78 80 80 86 74 68 59 59 62 64 64 67 65 61 67 75 79 80 78 75 78 78
64 68 68 68 70 71 71 71 69 70 74 78 78 77 72 70 67 65 67 68 67 71 73 76 79 83 88 89 85 81 77 77 78 81 83 78 72 70 70 72 78 76 70 79
66 67 69 71 68 69 72 70 67 65 66 76 78 78 76 77 80 77 73 72 64 68 77 77 78 84 95 97 96 93 89 82 80 88 93 89 78 80 76 73 74 79 74 68
68 68 69 74 68 71 77 69 69 74 75 78 84 81 79 79 77 76 79 85 78 78 73 81 81 76 81 82 84 92 91 82 79 82 88 89 82 78 76 79 80 82 79 79
72 70 73 77 74 81 77 73 76 77 78 78 79 82 83 82 81 78 76 80 83 87 84 84 76 73 80 89 89 87 79 80 87 86 79 79 78 84 83 82 85 86 85 82
73 73 77 79 79 83 78 76 77 80 82 83 83 84 85 83 82 79 81 81 82 83 85 85 70 74 75 77 77 81 86 89 87 78 87 83 79 78 77 78 84 91 93 89
74 75 77 79 81 83 81 80 81 83 85 82 83 83 84 86 86 82 84 85 86 87 89 91 97 104 103 100 100 90 86 86 87 91 91 90 84 90 86 89 92 76 89 99
74 74 74 75 78 80 78 76 75 76 76 78 79 80 81 83 85 86 85 85 85 85 87 90 93 96 99 101 102 100 104 106 98 94 93 89 88 92 91 89 80 71 72 76
69 70 70 71 72 75 71 70 70 71 73 74 76 78 81 84 85 85 86 85 86 86 85 86 87 86 88 91 94 95 91 91 97 96 94 102 93 79 83 79 79 71 69 70
62 59 62 64 65 63 62 64 65 68 72 73 77 78 80 82 83 84 85 84 85 87 88 89 90 87 84 87 91 92 93 93 89 91 90 91 87 84 78 73 69 69 66 68
54 55 60 59 57 61 62 63 65 67 71 72 74 76 77 79 80 81 82 82 83 84 86 87 87 87 86 88 88 90 94 100 97 98 93 88 78 75 72 66 69 67 66 70
53 54 55 59 58 60 61 63 65 66 67 67 69 70 71 72 73 73 76 76 77 79 79 80 81 81 81 82 84 86 90 94 97 103 102 101 98 94 88 81 79 72 74 77
48 50 55 58 57 58 62 62 60 59 59 61 62 62 63 67 71 73 74 74 75 77 76 76 76 78 76 76 77 78 80 85 90 94 98 104 113 112 111 100 96 88 82 77

GFSCGP_500_spd_015.txt.gz
Wind_Speed
46 51 49 44 46 49 51 53 55 48 44 52 47 50 45 38 38 34 32 31 35 35 30 33 36 36 36 38 41 41 39 39 38 37 35 37 37 39 38 37 37 37 39 41
49 53 48 48 49 52 52 55 53 52 48 52 51 50 49 46 35 35 32 30 33 28 30 35 33 37 39 38 38 37 36 36 38 40 42 42 39 38 39 39 39 41 40 41
51 54 52 52 55 53 53 54 54 57 52 53 55 57 54 46 42 33 37 38 36 37 31 32 31 29 32 34 35 36 37 37 38 40 42 46 47 45 44 42 45 47 47 46
50 42 45 46 48 49 55 46 53 54 56 57 56 60 56 54 50 45 42 39 34 28 31 30 33 28 29 38 41 40 36 38 39 41 42 41 43 48 50 50 49 50 50 49
51 49 46 49 46 50 51 52 52 54 55 62 60 61 62 64 56 55 49 44 40 41 41 42 43 45 44 42 43 48 49 45 42 41 42 43 44 44 48 52 54 54 54 53
51 52 53 53 56 55 57 59 60 60 61 62 63 59 62 64 63 58 48 42 49 45 46 51 53 52 51 50 47 46 50 52 48 45 46 46 46 46 46 48 56 58 58 58
52 52 53 53 56 57 54 58 62 66 66 66 62 64 65 65 60 62 57 48 48 54 58 60 58 57 57 53 55 55 52 55 57 58 54 52 50 50 50 51 52 58 59 56
59 59 57 56 56 59 58 56 56 62 65 67 67 71 67 67 66 61 63 58 59 62 63 66 67 65 62 58 57 54 55 57 62 64 64 63 58 57 58 57 56 57 61 62
62 65 59 60 59 59 61 64 60 65 65 68 71 71 67 67 66 66 67 67 66 66 66 69 70 70 70 65 63 62 58 58 56 55 56 61 64 65 62 62 65 64 64 64
62 67 67 64 62 65 62 62 64 64 64 67 70 70 68 68 71 74 73 73 73 73 69 69 71 72 72 71 68 64 53 48 49 51 53 60 61 61 61 66 70 69 67 68
62 63 63 66 68 63 64 67 66 61 62 65 68 70 64 64 65 68 71 72 73 72 71 70 67 67 65 66 69 67 60 54 54 52 57 61 65 64 63 64 69 72 70 65
66 67 67 67 67 66 67 66 61 62 61 66 68 70 59 63 66 67 73 78 75 73 70 71 72 72 70 68 66 67 63 63 62 62 60 61 63 65 68 70 69 68 66 61
57 58 64 67 63 65 66 63 64 67 67 70 73 71 69 69 72 74 75 76 77 73 72 73 75 75 78 77 74 74 69 69 71 70 71 71 71 74 75 75 71 72 70 68
65 66 67 70 71 69 62 60 54 52 63 71 74 78 74 71 66 67 69 72 75 79 81 82 84 83 81 78 77 77 75 71 76 78 72 71 73 76 75 73 71 71 72 69
68 71 67 67 67 71 71 67 69 72 75 79 82 80 74 75 70 70 74 76 78 80 82 83 83 80 78 79 78 80 82 81 78 82 78 76 75 73 72 72 73 74 75 78
68 72 73 75 71 73 75 73 72 72 71 78 77 78 76 74 74 74 74 75 77 78 80 83 82 82 84 87 83 82 84 87 84 81 84 91 91 86 82 78 81 83 88 88
74 75 76 81 75 77 80 73 72 72 71 74 76 75 76 78 78 79 81 82 82 81 83 86 85 87 86 83 86 90 87 84 85 82 84 89 92 95 97 100 104 93 81 86
78 79 79 82 79 84 81 77 77 76 76 77 79 81 81 83 84 83 84 84 85 86 87 88 88 87 86 87 88 92 95 99 94 91 90 88 90 88 88 89 86 82 82 80
75 75 78 78 80 83 83 77 76 78 80 81 82 84 84 85 85 82 85 86 86 87 88 88 88 87 86 87 88 92 98 100 100 100 96 97 100 88 81 86 87 82 77 78
67 69 71 76 80 82 80 79 79 79 81 79 80 81 82 85 86 82 82 82 82 82 81 81 82 82 83 85 88 89 90 92 98 102 104 104 105 100 93 85 83 86 85 81
63 63 65 66 68 72 69 70 71 72 73 75 75 76 78 79 79 78 77 78 78 79 79 81 84 85 84 83 84 84 85 86 90 94 100 108 114 106 103 101 93 90 89 90
58 59 61 62 64 66 62 63 64 63 64 66 68 70 73 74 75 75 76 77 79 81 82 83 85 84 83 85 86 85 84 86 86 89 90 93 100 109 110 108 106 100 99 95
53 52 56 57 57 54 55 57 58 60 65 65 67 67 70 73 74 75 77 78 79 81 83 84 85 85 84 84 87 89 87 89 90 91 92 93 94 95 99 106 106 100 95 103
48 48 52 53 49 52 55 56 58 60 63 63 64 66 67 71 73 75 76 78 79 80 80 81 82 82 81 80 82 84 84 85 86 87 88 90 93 95 96 97 95 95 92 91
45 47 49 53 51 54 53 55 57 59 60 61 63 65 67 69 70 72 73 74 75 77 78 81 82 81 79 77 77 78 80 82 82 82 82 83 86 88 90 92 94 92 89 89
44 49 53 54 51 52 56 54 58 60 61 61 61 61 62 64 67 68 69 72 74 73 73 74 73 75 75 75 75 75 76 78 78 76 75 76 78 79 81 82 84 86 88 86

GFSCGP_500_spd_018.txt.gz
Wind_Speed
49 51 48 45 46 49 52 52 51 46 48 53 47 50 48 42 37 33 31 35 37 39 38 36 37 37 36 36 36 31 28 29 30 35 38 39 38 37 38 37 39 40 38 38
48 52 48 48 48 50 53 56 56 56 52 52 55 54 49 50 41 39 37 36 37 36 32 35 36 33 35 40 42 41 38 34 32 34 36 36 37 38 41 40 40 40 41 41
48 52 50 52 53 51 52 55 56 58 54 53 53 55 58 52 44 43 40 38 38 38 40 37 38 40 38 37 35 39 37 31 32 33 35 39 40 41 42 44 45 46 46 46
47 41 45 48 48 48 52 49 54 56 57 58 53 58 58 56 54 54 50 44 44 43 38 39 40 43 43 39 39 37 38 41 42 39 39 39 41 41 44 45 46 46 49 50
47 49 52 54 54 54 57 56 56 58 60 63 62 61 62 63 61 54 53 47 51 48 46 44 42 44 46 45 46 46 47 46 46 45 43 44 47 47 47 47 49 49 50 52
46 49 52 53 53 52 55 56 58 60 61 63 63 64 65 61 60 52 55 38 36 31 34 52 53 50 51 52 55 53 53 52 51 50 49 47 48 51 51 52 51 52 54 56
52 50 52 53 55 55 53 54 58 61 60 60 65 64 66 64 55 56 46 38 45 57 62 55 51 52 58 61 58 57 57 57 57 55 54 54 55 54 55 57 58 58 59 59
58 57 55 55 54 56 58 59 61 62 62 63 60 66 65 64 66 68 67 67 66 67 70 64 61 62 61 61 64 65 63 61 59 59 60 61 60 61 60 57 56 59 63 66
59 64 59 59 59 58 61 63 62 64 65 68 66 65 64 65 66 67 67 70 69 68 69 71 73 69 67 65 63 63 64 64 61 59 60 61 61 66 68 65 63 65 68 71
56 61 60 61 58 57 58 56 59 61 64 71 73 70 67 66 67 70 67 64 64 65 67 69 70 68 66 64 64 64 65 62 61 61 59 66 64 60 64 69 70 71 72 71
57 57 59 59 61 60 60 58 57 62 66 68 69 69 68 67 66 68 65 63 63 63 64 65 69 71 69 69 70 67 68 67 65 62 64 60 61 61 63 68 71 71 73 79
58 63 64 61 59 62 61 58 58 62 65 66 67 66 61 61 64 62 64 70 72 71 72 72 74 76 79 78 73 73 70 70 71 65 65 69 63 68 69 70 74 76 78 79
60 58 60 62 60 60 57 55 55 59 63 68 68 65 58 46 54 56 61 67 74 75 76 79 78 76 75 73 73 72 73 74 77 78 75 72 73 74 75 77 77 78 78 78
59 61 63 66 64 63 63 62 62 66 70 71 65 65 64 66 67 72 74 74 74 78 80 83 84 84 84 83 81 79 79 80 82 85 87 85 77 74 78 80 85 83 84 84
58 61 61 62 65 67 70 71 70 72 69 71 72 72 69 74 78 81 84 84 86 86 84 86 87 87 87 87 87 89 89 86 83 83 81 79 76 76 76 85 90 93 91 93
60 64 65 69 68 72 76 75 75 76 76 81 80 82 81 82 82 84 83 82 80 80 81 82 83 84 85 86 87 88 90 91 90 90 89 90 88 84 81 83 85 96 96 93
69 72 74 80 75 77 84 79 80 82 81 81 83 81 81 83 81 81 82 80 80 82 82 83 84 85 86 87 89 92 94 96 97 95 96 95 94 92 89 88 90 88 95 100
77 79 79 84 79 86 88 81 82 83 83 83 82 82 82 82 82 81 81 82 82 84 85 86 88 89 91 93 95 97 98 99 101 101 101 102 103 103 102 98 94 98 97 95
78 78 78 78 79 82 81 73 72 72 74 73 75 77 78 79 80 78 77 80 81 82 84 86 88 90 91 92 94 96 96 98 99 101 102 101 101 103 104 107 107 103 103 105
79 72 67 68 67 70 66 61 61 61 64 65 67 68 69 71 73 72 70 72 73 74 76 77 79 81 81 81 83 85 86 87 88 91 93 95 96 98 99 100 104 107 108 105
63 60 61 58 61 63 59 57 55 56 57 57 60 61 64 66 67 66 65 67 67 69 71 73 74 75 77 80 83 83 84 85 88 87 88 88 88 88 90 91 94 98 102 105
54 55 54 54 56 56 52 53 51 50 51 54 57 58 60 62 63 64 65 66 68 71 72 74 76 77 77 81 84 85 86 88 89 90 90 91 91 92 93 93 92 94 96 96
51 50 54 53 50 47 48 49 49 50 54 53 56 57 61 62 64 66 67 68 68 71 73 75 78 79 79 81 84 86 85 87 87 88 88 90 90 90 90 92 92 94 96 98
44 47 52 53 42 45 46 49 51 52 55 56 57 58 59 62 63 64 66 67 68 69 70 73 75 76 77 78 80 82 83 85 85 85 84 83 84 84 84 85 87 90 91 93
41 48 46 50 43 48 47 50 52 54 55 55 56 58 59 61 63 63 64 64 65 66 68 71 73 73 74 74 74 75 75 77 77 76 75 75 76 76 77 78 78 81 84 87
39 44 49 49 45 51 50 50 52 54 54 55 56 56 57 57 57 59 59 60 62 64 65 66 67 68 66 65 65 66 68 66 66 66 67 66 66 65 65 67 68 70 74 76

GFSCGP_500_spd_021.txt.gz
Wind_Speed
43 48 50 46 50 47 49 52 53 51 51 55 51 51 52 52 44 40 36 35 37 39 39 39 41 41 39 38 39 39 36 33 34 37 39 41 41 42 42 43 42 40 40 42
50 53 52 50 48 49 49 54 57 56 56 58 57 56 50 50 46 39 37 38 41 42 40 41 42 43 42 39 37 39 40 41 39 38 41 41 42 42 42 44 45 44 44 43
52 52 54 50 52 51 53 55 56 58 59 59 64 61 58 54 50 45 44 44 42 40 41 41 43 46 45 44 43 42 42 45 44 40 39 41 41 42 46 45 46 44 48 48
47 43 47 50 48 50 53 52 56 58 59 62 66 69 62 60 60 61 57 53 52 48 45 46 46 46 50 47 46 43 41 40 41 43 38 37 38 42 43 42 43 45 49 52
46 45 47 49 51 53 53 54 54 55 59 62 62 66 66 63 64 64 60 56 55 55 52 50 49 44 46 47 44 44 47 48 45 46 48 49 49 45 48 46 45 46 47 50
43 50 47 47 50 51 51 54 54 55 56 60 61 60 63 62 61 65 65 63 55 42 38 39 40 44 46 45 45 52 54 55 55 54 53 54 53 52 51 52 53 52 50 51
51 52 52 51 53 52 53 55 60 60 60 62 59 63 63 65 62 64 61 61 49 43 39 41 42 46 51 51 59 63 61 60 61 61 60 59 59 56 55 54 54 56 58 58
53 52 55 58 53 53 55 54 56 61 61 64 61 68 66 67 66 65 65 62 60 55 55 53 51 54 64 72 74 68 64 62 65 67 67 68 66 63 61 61 60 60 61 62
54 55 56 55 55 54 54 54 55 60 58 64 65 66 63 63 67 66 66 69 71 70 69 67 62 64 67 68 68 63 65 65 65 68 72 73 72 72 70 67 66 66 69 70
54 55 54 52 52 51 52 52 52 53 58 63 62 64 65 61 66 66 66 66 69 70 69 65 63 61 58 58 61 67 67 65 63 65 65 66 69 69 70 70 70 70 74 73
54 54 57 57 57 53 55 57 57 58 62 65 64 61 61 59 61 64 66 65 67 70 69 67 66 65 66 65 67 69 71 70 70 70 70 74 73 69 71 73 74 74 77 78
52 57 58 56 53 55 59 56 55 54 58 61 58 50 51 60 61 62 64 69 73 73 73 76 75 75 74 73 75 76 77 77 74 73 74 76 73 70 76 79 78 77 76 77
56 60 60 61 58 60 57 57 56 59 59 60 63 66 65 67 69 71 73 68 74 73 72 74 78 78 83 79 77 82 85 84 81 80 80 79 78 75 76 79 83 74 72 72
59 59 61 62 60 58 59 58 58 61 65 65 66 67 63 55 50 62 70 69 62 76 77 77 79 77 79 81 80 82 87 86 87 87 86 86 85 84 84 82 83 85 87 82
59 60 58 61 61 61 61 62 61 65 65 70 71 72 66 69 82 85 83 78 81 89 86 89 94 97 95 92 93 93 97 99 93 89 90 91 90 89 87 86 87 89 92 91
60 63 62 64 62 64 69 69 71 72 75 77 79 82 78 81 83 85 84 84 88 93 95 96 99 101 102 98 100 99 100 98 95 93 92 92 93 92 92 92 91 91 90 91
62 64 66 71 66 70 78 72 76 78 79 82 83 82 82 84 86 87 88 88 89 90 91 91 92 93 93 94 96 98 98 98 97 98 100 101 99 98 98 99 98 99 98 96
65 64 68 75 73 81 77 78 81 82 84 81 76 76 74 73 74 78 79 78 77 75 76 79 82 84 87 89 93 95 96 98 100 101 103 105 107 107 106 107 106 107 107 105
67 69 73 76 79 83 81 76 76 73 75 67 68 66 66 66 66 63 64 69 67 69 69 71 73 78 80 82 84 86 88 91 95 97 100 102 102 104 105 106 106 106 108 108
70 72 74 77 81 82 77 74 67 59 68 61 58 59 60 62 63 58 58 59 58 60 62 64 67 69 70 72 75 77 79 82 85 88 89 89 91 93 94 96 97 98 100 102
71 72 74 76 75 74 72 66 61 60 56 55 55 55 56 56 55 55 54 55 57 58 59 61 63 66 68 71 72 73 75 79 81 83 84 86 88 90 91 92 92 94 95 95
72 72 73 69 67 67 63 59 54 51 51 52 52 53 55 55 54 56 57 58 58 59 61 63 65 67 69 73 75 77 79 82 83 85 86 87 89 91 92 93 92 94 95 96
67 63 64 65 61 57 55 54 51 52 52 48 52 52 55 56 56 57 59 59 60 61 63 66 68 69 70 73 75 76 78 81 82 83 83 84 85 86 87 88 88 90 91 93
57 56 61 57 54 50 50 49 49 50 52 51 52 53 55 57 57 58 59 60 61 62 63 65 66 68 68 69 72 75 77 79 80 80 79 77 78 77 77 76 76 76 76 77
50 53 51 56 52 48 49 49 49 50 50 51 52 54 56 57 58 59 59 58 59 59 60 61 63 66 67 69 70 73 75 74 72 71 70 67 63 61 62 65 67 67 67 67
42 46 51 52 48 49 51 49 50 51 52 54 54 55 56 57 58 59 58 56 55 56 58 61 64 66 65 64 62 62 63 64 64 63 64 62 60 57 59 58 55 58 60 59

GFSCGP_500_spd_024.txt.gz
Wind_Speed
44 43 42 43 45 49 52 53 52 51 48 50 48 47 50 51 50 42 39 40 42 42 34 38 39 41 42 41 41 39 39 39 37 39 42 40 37 39 38 38 43 44 42 43
45 46 48 52 50 51 53 58 55 52 52 53 52 53 47 46 46 48 50 46 42 41 41 39 39 42 43 43 41 39 39 40 42 42 40 41 43 43 43 41 41 43 43 43
50 48 52 55 52 50 50 50 51 53 51 50 56 58 56 52 47 50 50 46 43 41 42 44 45 46 46 47 47 46 44 44 45 45 45 46 46 47 47 48 45 42 43 46
44 35 40 45 46 46 45 45 49 52 55 56 57 62 59 55 58 61 57 48 45 44 43 42 42 44 45 49 49 51 48 47 46 46 45 44 45 44 46 46 42 44 46 45
42 42 41 41 43 47 48 46 46 47 51 56 55 57 61 59 61 61 58 56 52 49 47 44 45 45 43 42 45 47 48 49 46 40 41 42 46 49 49 49 49 50 49 50
46 48 46 44 42 43 46 47 49 51 52 57 56 59 62 60 58 58 57 58 58 55 53 51 45 35 38 40 42 48 52 56 51 49 46 47 49 55 55 59 62 59 55 56
49 47 48 49 49 47 47 50 53 55 55 57 58 60 59 58 61 61 60 59 56 55 52 43 38 44 43 44 44 50 55 63 60 55 52 56 59 62 64 65 62 62 62 60
48 49 49 53 53 52 50 50 49 53 56 58 54 58 56 55 56 59 60 61 61 60 56 52 51 53 52 53 57 53 59 65 63 64 63 65 75 74 69 69 69 69 69 67
49 51 49 50 51 52 51 49 49 53 55 57 59 59 55 54 58 59 62 63 61 60 60 60 62 64 63 62 62 60 61 66 69 75 79 81 81 73 72 74 75 76 77 74
56 56 52 50 51 48 47 48 50 51 53 57 59 58 56 55 58 58 59 60 63 63 62 64 66 67 68 66 66 66 64 66 71 78 82 81 73 73 73 73 75 74 74 74
47 47 48 47 44 45 48 49 51 52 55 58 60 59 53 57 57 58 61 64 62 61 62 66 68 68 68 70 71 72 74 72 69 74 78 74 75 77 79 74 72 73 74 76
45 48 49 48 46 48 51 52 53 57 58 58 56 51 42 47 54 54 55 60 60 63 65 68 69 70 72 74 79 84 83 79 75 81 81 84 85 82 82 83 77 76 76 78
49 53 54 54 52 52 53 54 53 56 57 55 56 57 53 52 54 62 65 67 72 76 78 83 81 74 78 77 73 72 67 76 78 83 84 86 87 84 82 83 82 83 83 81
53 55 56 57 56 56 57 57 56 60 63 63 64 65 60 61 64 66 66 67 71 72 72 66 72 71 75 80 86 90 94 95 94 95 96 93 93 94 92 88 89 89 90 90
56 57 59 58 60 59 61 62 61 64 64 67 67 67 66 67 72 74 75 76 77 78 80 83 86 90 94 98 99 98 101 104 101 103 102 101 104 104 100 96 98 96 97 98
60 61 61 62 62 62 64 64 65 65 66 70 72 75 71 75 76 77 78 79 79 82 84 89 92 96 99 100 99 99 102 105 107 106 105 104 107 107 101 94 93 96 98 99
63 64 66 69 66 69 71 64 67 69 69 72 77 76 76 77 79 80 79 76 77 77 76 75 78 82 86 89 91 95 98 103 108 107 103 103 106 107 107 107 105 103 102 103
64 66 68 71 71 75 70 69 72 73 74 76 79 79 78 76 73 71 69 68 69 67 63 64 67 70 73 75 76 78 79 82 83 86 89 90 93 96 97 100 102 104 108 110
65 66 70 72 73 76 71 70 74 76 77 75 73 68 69 70 69 64 59 61 59 56 56 57 59 60 64 68 69 70 72 74 76 78 79 82 84 87 89 91 93 94 96 98
66 67 71 72 77 79 75 75 78 78 83 72 68 67 64 62 63 56 53 51 52 53 52 53 54 57 61 64 66 68 69 71 73 75 76 78 80 82 85 87 88 89 91 92
67 69 71 72 77 81 77 76 76 72 66 68 62 60 57 56 55 52 51 49 50 52 53 54 56 58 61 63 65 67 69 71 74 75 77 79 81 83 85 86 87 89 90 91
71 71 70 73 77 81 76 72 66 61 61 58 55 53 54 54 52 51 50 51 53 53 55 56 58 60 63 65 67 69 71 73 76 78 80 82 83 84 84 83 84 85 87 88
71 65 71 73 75 75 64 58 56 56 56 54 54 52 52 52 51 52 53 53 55 56 57 58 59 61 63 66 68 70 72 74 74 75 76 76 76 75 72 69 68 69 70 70
68 68 72 71 67 58 52 49 50 51 52 52 52 50 49 50 51 53 54 55 56 56 57 59 61 62 63 64 64 67 68 70 71 71 70 68 63 58 60 58 56 57 59 61
69 68 64 62 55 49 47 48 49 50 50 49 48 48 49 50 52 54 55 56 56 57 57 59 60 60 59 60 62 66 67 67 64 62 62 57 51 45 44 49 51 52 56 58
60 58 56 56 48 49 51 52 52 53 51 50 50 49 49 51 52 53 56 58 59 58 56 55 54 54 57 60 62 60 58 54 52 54 52 46 42 42 45 47 43 53 55 52

GFSCGP_500_spd_027.txt.gz
Wind_Speed
41 41 36 38 41 42 42 44 46 46 48 50 44 45 41 42 41 41 41 38 37 39 40 40 38 37 37 36 37 37 38 38 37 37 38 37 38 40 42 45 42 40 41 44
43 43 40 44 45 45 47 50 49 49 47 47 45 45 39 37 44 44 43 40 36 35 35 39 41 42 43 42 42 42 40 39 39 38 40 42 42 42 41 44 46 45 43 42
42 44 43 44 46 44 42 43 43 46 43 43 48 47 43 40 42 40 42 42 42 40 36 35 35 38 40 40 40 39 40 41 42 43 44 44 47 50 49 48 49 51 49 46
37 32 36 37 38 41 39 41 41 42 44 47 46 53 48 51 53 52 49 49 48 46 45 43 40 37 38 41 42 44 44 41 39 40 44 46 49 50 51 50 48 49 50 51
38 38 37 36 39 42 42 42 42 41 45 52 47 52 54 54 54 53 54 53 51 49 46 43 42 42 41 40 41 44 44 44 43 43 45 48 52 53 53 53 50 48 49 50
42 43 42 43 42 43 46 46 45 47 48 52 51 54 56 55 53 52 52 51 50 49 47 47 47 46 47 45 42 39 44 48 49 50 51 54 56 55 57 56 53 52 52 53
44 42 44 45 44 44 44 45 47 51 52 53 54 54 53 52 54 55 55 55 53 51 51 51 52 53 51 48 45 47 48 48 50 53 55 58 60 64 64 66 63 62 56 54
43 43 45 46 47 47 48 46 46 50 52 53 51 53 50 52 54 56 54 53 53 54 55 57 57 56 54 52 53 53 56 56 57 57 61 61 67 69 68 68 74 73 74 73
43 43 44 45 46 47 50 51 52 53 50 51 52 50 50 51 52 52 53 54 56 59 61 63 62 61 60 60 58 60 63 67 65 63 70 72 73 74 76 77 78 82 85 84
48 49 50 50 49 48 47 47 48 49 51 53 52 49 50 51 49 51 54 55 57 59 63 63 62 64 65 65 65 59 64 66 67 69 69 68 74 76 80 82 81 78 84 91
51 51 49 48 46 45 45 44 46 48 51 54 56 54 52 50 52 55 55 54 55 57 60 62 67 68 66 69 67 65 69 65 64 65 66 71 74 76 79 83 85 86 84 86
49 46 48 44 45 46 47 45 48 53 55 55 57 56 51 51 55 54 53 54 58 60 65 65 63 64 68 71 72 74 78 79 78 83 84 86 83 83 87 82 86 85 89 90
48 51 51 51 49 48 48 48 51 55 58 58 58 60 55 55 54 56 58 61 64 65 67 69 72 76 78 79 80 81 82 81 80 78 77 79 86 80 82 85 88 90 92 96
53 53 53 51 50 53 54 53 55 58 60 59 60 59 56 57 59 62 63 64 68 69 71 73 76 78 81 83 85 87 88 89 89 91 91 95 90 92 101 95 102 96 100 104
55 55 56 56 57 59 59 58 57 61 59 61 63 63 63 62 66 67 68 69 71 74 76 77 79 80 84 87 88 90 93 95 96 98 101 105 107 107 107 108 106 108 109 112
55 59 60 60 60 61 65 61 63 63 64 68 68 72 67 70 71 72 74 74 76 79 80 81 81 81 82 83 83 84 85 86 88 90 91 92 91 92 96 98 99 100 103 105
60 61 63 64 63 64 68 58 62 65 65 69 73 73 72 72 73 74 77 78 80 81 80 78 76 76 76 75 75 75 75 77 78 79 79 80 81 81 82 83 86 89 95 102
62 62 63 64 64 71 63 65 66 69 69 71 74 75 76 77 78 79 79 80 79 76 73 71 68 66 65 66 68 68 69 69 70 70 71 72 74 75 76 77 78 80 83 86
60 61 63 63 66 69 66 64 67 70 70 70 72 73 76 76 77 77 76 75 72 67 63 59 57 56 57 59 60 61 63 65 66 67 70 72 74 75 77 78 78 79 81 80
58 60 62 64 69 71 67 66 69 73 75 72 77 78 79 80 81 76 71 66 59 54 53 53 55 55 55 56 57 60 62 65 67 69 70 72 74 76 78 78 79 80 80 80
60 62 64 65 72 74 68 69 71 75 75 77 78 79 79 77 74 68 59 52 50 51 50 51 53 54 55 58 60 62 64 66 67 68 71 74 76 78 78 78 76 75 75 74
62 63 63 68 71 75 73 73 72 73 77 77 77 74 72 66 59 52 49 48 49 48 48 50 53 55 57 59 61 62 63 65 67 70 73 74 75 73 73 73 71 69 66 60
64 60 64 68 72 74 76 71 71 72 75 73 72 67 60 54 47 45 45 47 48 48 49 50 52 55 57 59 61 62 64 66 68 69 68 69 68 68 66 62 57 51 44 42
64 65 69 72 72 70 68 66 67 67 64 63 58 54 50 49 47 46 46 46 47 48 50 52 53 55 57 60 62 63 63 63 63 63 65 65 62 56 56 55 50 42 45 48
66 70 70 73 72 68 70 66 62 59 55 53 50 48 47 46 46 47 46 47 48 50 51 53 54 56 59 60 58 58 58 60 61 61 61 55 50 48 46 48 48 47 50 46
66 70 71 72 67 63 63 58 54 54 51 51 50 46 45 47 47 46 46 47 48 51 53 54 56 58 58 55 52 55 57 59 60 56 50 44 40 36 35 39 42 45 40 43

GFSCGP_500_spd_030.txt.gz
Wind_Speed
36 37 33 35 38 37 37 38 39 37 40 43 38 40 37 37 37 34 32 34 34 36 36 36 36 35 35 36 38 38 39 39 37 36 36 38 38 37 37 40 41 42 43 44
40 41 37 41 42 41 40 41 40 41 39 39 37 36 35 33 35 35 34 32 33 33 32 34 36 38 39 38 38 39 40 39 39 39 40 40 40 41 42 42 43 45 47 47
41 40 37 37 38 38 36 35 36 38 36 39 43 42 35 37 35 35 38 37 35 36 33 32 32 34 34 36 38 39 41 43 44 43 41 41 42 44 46 48 50 51 51 52
35 30 34 34 33 35 34 38 38 39 42 42 41 48 41 42 43 42 41 40 40 39 39 40 39 38 40 41 42 43 42 43 45 48 48 45 45 45 45 47 50 53 55 54
36 34 32 33 35 36 37 38 40 42 44 48 44 47 48 48 49 46 45 45 43 43 43 45 44 45 42 42 42 43 41 41 43 47 50 50 48 48 49 51 50 51 54 58
37 39 37 37 39 39 41 41 43 44 45 49 44 47 51 51 48 47 49 49 46 45 45 45 47 47 48 48 48 48 48 45 45 46 48 50 54 55 56 56 57 59 58 60
40 39 39 39 39 39 40 41 43 46 47 48 49 52 51 49 50 50 49 48 47 49 50 50 50 50 50 50 52 53 52 51 50 49 55 55 55 60 62 63 64 65 65 65
40 39 39 41 40 41 42 40 40 44 47 49 52 55 55 52 50 46 47 47 47 49 52 53 53 55 56 58 60 59 60 59 58 59 57 63 69 68 67 69 70 72 72 71
41 40 37 39 39 39 42 44 46 50 50 52 55 56 54 51 51 51 51 50 51 52 54 55 56 59 60 62 63 64 64 64 63 65 68 68 73 75 75 75 76 80 81 79
42 42 43 45 46 47 46 47 48 50 51 53 52 51 53 51 51 52 53 52 53 55 57 58 59 61 62 63 64 65 66 66 70 73 68 74 76 73 73 75 73 77 83 83
44 46 47 49 46 45 46 46 48 48 51 53 54 55 56 54 54 55 56 56 56 58 59 61 62 64 65 66 67 69 70 70 75 74 75 78 81 77 77 76 78 78 81 82
43 45 49 49 49 46 45 47 48 51 54 55 57 56 56 57 58 58 58 60 63 63 64 65 66 68 70 72 74 76 77 80 79 81 82 84 83 82 86 87 90 90 89 91
44 48 48 50 49 47 47 47 49 54 55 58 61 62 57 59 60 61 62 65 66 66 66 68 70 71 73 75 76 78 79 81 82 83 85 87 88 88 88 89 90 90 90 89
49 50 51 51 52 56 53 52 56 59 61 62 63 64 60 62 63 65 66 66 67 68 70 72 73 74 76 78 80 82 85 86 86 88 88 89 90 91 92 94 95 96 97 99
56 57 58 60 58 57 56 53 62 63 63 67 62 64 62 60 63 66 65 66 68 70 72 73 74 76 78 81 83 84 86 88 89 90 90 90 91 92 92 93 94 95 96 98
58 60 59 57 59 61 62 56 63 64 63 64 63 67 58 64 66 67 69 70 72 73 74 75 77 78 80 82 84 85 86 86 86 85 84 82 81 80 79 79 80 82 85 87
58 58 59 58 61 66 68 60 60 63 65 66 67 65 66 65 68 70 71 72 73 74 77 78 80 81 83 85 86 86 84 83 80 77 73 70 68 68 67 68 68 69 70 72
56 57 61 65 67 72 65 60 62 65 65 66 67 67 67 69 71 73 74 75 75 77 78 80 81 82 81 80 78 75 73 70 68 68 67 66 65 66 67 69 71 73 73 74
58 60 65 67 69 71 64 61 63 67 65 66 68 68 71 71 71 70 73 75 76 78 79 79 80 78 74 69 64 62 62 63 64 63 63 65 67 70 72 74 74 75 74 74
58 62 63 65 69 70 61 61 62 64 67 63 67 69 69 71 73 73 78 78 78 78 77 76 72 65 59 57 57 59 60 61 62 63 64 66 69 71 72 74 74 73 73 71
58 60 60 60 66 69 59 61 62 67 62 65 67 70 72 74 76 76 77 78 76 72 67 60 55 53 53 54 56 57 58 60 61 63 65 67 68 69 70 71 71 69 67 68
59 58 60 61 66 70 61 66 66 64 67 69 71 73 76 76 77 77 76 74 70 62 54 50 50 50 51 52 55 56 57 58 60 62 63 65 67 70 69 68 66 65 61 57
58 55 58 63 66 67 70 68 68 69 71 73 74 75 76 77 76 75 70 64 56 51 49 49 50 51 51 51 52 54 55 56 59 60 62 64 67 66 64 64 60 50 47 46
55 57 62 65 64 66 70 68 69 70 70 70 71 74 73 73 70 66 57 53 50 48 48 50 51 51 51 52 53 54 56 56 58 60 62 64 62 60 62 56 46 41 43 42
56 60 62 69 69 69 70 69 69 70 69 67 65 65 64 63 60 53 50 49 47 47 48 50 51 52 53 55 55 55 56 57 60 61 60 59 57 57 55 42 41 42 41 39
57 61 69 70 66 68 71 71 70 69 65 62 61 60 56 53 49 47 47 47 47 48 49 50 52 54 56 57 57 57 57 58 58 57 55 55 52 52 44 37 36 41 39 39

GFSCGP_500_spd_033.txt.gz
Wind_Speed
34 34 29 33 36 36 35 36 37 34 35 37 34 37 36 35 32 29 29 28 29 30 32 34 34 34 34 34 35 36 36 35 35 35 36 39 42 42 41 42 45 46 46 45
36 38 34 37 39 40 39 38 36 36 35 36 34 32 33 31 34 33 31 29 29 31 34 34 35 35 36 37 38 37 36 36 37 39 40 41 42 43 45 47 47 48 49 49
42 43 40 40 40 40 38 34 35 35 35 38 38 38 35 35 36 36 34 35 36 35 36 36 35 36 35 36 37 37 37 38 39 39 40 41 42 44 46 49 51 53 54 54
45 41 43 40 36 35 34 35 35 36 38 40 42 45 40 37 39 39 38 39 40 40 40 39 40 41 39 39 40 41 41 41 42 42 43 45 46 48 48 49 52 53 56 58
39 39 37 36 35 34 34 35 37 39 42 45 43 45 45 43 43 40 42 40 40 42 43 44 43 44 42 40 40 39 40 41 42 43 45 46 49 51 53 56 57 57 58 58
38 38 36 34 35 36 35 37 39 43 45 48 42 44 49 48 46 44 45 47 47 46 46 46 47 47 47 47 47 47 48 50 50 51 52 53 55 56 58 59 63 65 64 62
37 36 37 37 36 37 38 40 43 46 46 48 46 46 46 47 47 47 47 48 49 50 49 49 49 50 51 52 52 54 55 54 55 56 56 59 61 63 63 63 65 68 70 69
38 37 37 38 38 41 44 45 43 47 47 47 49 54 54 53 51 48 48 49 49 51 52 53 55 57 57 56 58 60 59 59 60 63 63 63 64 67 67 66 70 74 78 76
39 41 39 39 41 41 42 44 41 46 48 49 52 54 54 54 51 50 49 49 50 52 55 57 61 62 63 64 65 63 64 65 65 66 68 68 69 69 71 73 74 76 78 82
43 44 43 42 43 43 41 43 47 47 49 51 52 52 51 49 49 50 51 53 54 57 59 61 61 63 66 67 68 69 70 71 71 70 70 71 71 72 73 75 77 78 84 83
49 50 51 51 47 41 42 44 43 44 49 52 54 59 58 53 52 55 55 57 59 59 61 63 66 67 69 70 72 73 73 74 74 75 76 77 77 77 78 79 80 81 81 83
50 54 54 52 51 47 42 43 43 47 50 52 55 59 58 53 54 57 57 59 63 65 67 69 70 71 72 74 75 75 76 77 78 79 80 80 81 82 83 84 84 83 83 85
48 53 53 56 56 50 48 47 47 49 52 59 60 60 54 55 59 59 61 64 67 69 72 72 74 76 77 77 77 78 78 80 81 82 82 82 84 85 86 87 88 88 88 88
55 56 58 59 55 53 50 48 51 56 62 59 59 56 58 61 62 64 65 68 70 72 73 75 75 76 76 76 77 78 79 81 82 83 84 86 87 87 88 89 90 91 91 92
60 62 60 55 51 51 50 51 55 60 59 64 59 60 59 64 64 68 71 73 74 75 74 73 74 74 74 76 77 79 81 82 84 84 85 86 88 89 90 90 89 89 88 88
58 61 60 57 53 55 58 56 61 60 60 64 67 67 64 65 65 68 69 70 71 70 71 72 72 73 75 76 78 81 82 84 85 86 87 88 87 86 83 80 78 74 72 71
61 63 65 63 59 61 67 62 60 61 60 67 70 65 66 66 67 68 69 67 68 70 71 71 73 75 76 78 81 83 85 86 87 87 85 81 76 72 69 66 66 66 66 67
58 63 69 68 67 70 67 61 58 61 64 67 68 70 69 69 69 67 65 66 69 71 72 74 75 77 79 82 83 83 84 84 82 77 72 68 65 63 63 64 65 66 68 70
60 62 67 66 67 68 67 62 61 65 65 68 68 68 69 70 71 68 67 72 72 72 73 75 77 79 80 81 81 81 77 71 67 64 62 62 61 61 62 63 65 68 69 70
63 62 63 67 69 71 65 61 67 70 71 66 66 69 71 71 72 68 71 71 71 73 75 77 79 80 79 79 76 70 63 60 59 59 60 61 61 62 62 64 65 67 70 70
62 60 61 61 67 69 64 65 65 68 67 65 69 69 69 70 70 71 71 72 75 76 78 79 77 76 71 65 59 57 56 55 57 59 60 60 61 61 62 64 66 66 66 67
54 55 58 60 65 70 63 66 67 64 65 66 67 67 70 71 71 73 74 75 76 77 76 74 71 64 58 55 54 53 53 55 56 57 58 59 60 63 64 65 66 67 67 65
57 56 56 59 62 65 67 66 65 64 64 65 69 70 73 73 74 76 76 76 75 73 68 62 58 53 53 53 53 53 53 53 54 55 57 60 62 64 65 65 66 66 66 60
52 51 55 59 60 63 67 66 64 65 68 70 73 74 75 76 75 75 73 70 67 63 57 54 52 51 52 54 54 53 53 54 55 57 59 61 62 63 63 64 65 62 61 56
48 49 53 59 60 61 64 66 66 69 71 73 73 72 73 73 70 66 63 59 54 49 49 51 51 52 52 53 54 54 55 56 58 59 60 60 60 61 61 62 59 58 58 50
46 51 60 64 62 66 67 66 68 70 71 70 69 68 66 62 59 55 53 49 47 45 47 50 52 53 53 54 55 57 58 60 61 61 60 60 60 60 60 56 51 53 53 43

GFSCGP_500_spd_036.txt.gz
Wind_Speed
35 34 30 33 33 33 32 32 32 30 34 36 34 32 34 33 31 30 28 27 27 28 28 28 30 32 34 37 38 36 35 36 36 37 37 37 38 39 40 41 43 45 46 48
37 35 32 33 34 36 37 37 35 37 37 35 33 29 30 30 30 31 31 30 30 30 30 29 32 34 35 37 38 40 42 40 40 40 40 41 43 44 44 44 44 46 48 50
38 37 35 36 39 41 42 41 40 40 37 35 33 31 31 30 31 34 35 36 35 34 34 34 34 36 37 38 39 39 41 43 45 46 46 46 46 47 47 48 50 53 53 53
41 39 40 42 43 44 45 42 42 38 38 36 36 37 33 33 35 36 36 35 35 35 36 38 37 37 39 40 41 42 45 47 48 49 50 52 52 51 52 54 53 54 56 57
45 46 45 44 43 41 40 40 40 39 39 40 39 41 42 39 35 35 36 34 34 36 37 37 38 40 42 43 44 44 45 46 47 48 50 51 52 54 55 57 56 57 58 61
42 45 45 42 40 40 39 39 40 41 42 43 39 43 45 42 42 39 37 37 39 41 40 39 39 42 44 45 45 47 48 49 50 51 52 53 54 55 57 58 59 61 62 63
39 39 39 40 39 38 39 41 43 44 42 43 44 47 45 44 44 43 41 40 39 39 43 45 46 48 51 52 54 54 55 55 55 56 57 59 60 61 62 63 65 66 68 70
36 38 37 38 38 40 43 43 43 42 46 48 47 47 45 47 46 44 42 39 39 40 41 45 49 51 54 57 59 60 61 62 63 64 65 65 65 66 67 68 69 70 72 74
40 41 39 40 41 42 43 43 39 45 47 50 53 50 47 48 49 45 40 40 43 46 47 50 54 56 59 60 61 64 66 68 68 69 69 69 70 71 71 73 73 73 73 75
43 41 41 42 43 44 43 42 45 46 48 52 55 53 54 51 50 47 46 48 48 51 52 55 58 60 62 64 67 69 70 70 70 71 74 76 76 76 76 76 76 76 76 77
42 41 43 43 46 45 45 48 49 49 52 54 55 56 57 55 52 52 51 50 51 52 54 59 62 64 67 69 71 72 73 75 76 77 78 78 77 76 77 77 78 79 81 82
46 48 49 48 50 51 52 51 51 52 50 50 54 59 60 55 52 53 53 53 54 57 60 63 65 68 71 73 74 75 77 79 80 80 82 83 83 83 83 84 85 85 85 85
52 54 52 55 58 57 54 49 46 47 51 60 57 63 56 55 55 53 53 56 59 62 64 68 70 72 74 75 77 78 79 80 81 81 82 81 80 82 83 84 86 87 88 89
60 58 60 60 59 60 57 57 54 53 62 60 61 55 57 55 54 54 56 59 63 66 70 73 74 76 77 77 78 79 79 79 79 79 79 80 82 84 85 86 88 89 90 90
63 62 61 60 60 61 63 60 56 61 61 60 56 57 53 55 56 60 64 66 68 71 74 76 77 76 76 77 77 77 77 78 79 80 81 82 83 85 87 88 89 91 92 92
64 61 60 61 58 61 63 58 66 63 62 64 60 62 57 58 61 63 67 70 71 74 75 75 75 76 74 74 75 76 76 78 80 81 81 83 85 87 88 89 89 85 80 75
58 60 58 61 60 60 65 66 62 65 64 62 65 61 60 61 65 66 70 73 73 74 74 75 73 71 71 72 74 76 78 79 80 81 83 85 87 87 86 79 74 69 66 64
61 61 63 64 60 64 63 58 61 60 58 61 65 65 63 67 69 70 73 75 76 75 74 71 70 71 72 74 76 77 79 81 83 84 85 85 84 78 70 65 62 61 60 61
62 61 67 65 66 67 68 65 60 61 61 66 68 65 67 70 70 71 72 76 76 72 70 70 71 72 75 76 78 80 82 83 84 83 81 75 69 64 60 59 59 60 60 61
64 67 69 72 70 67 66 61 61 66 66 62 62 65 68 71 73 69 74 73 71 70 71 72 75 76 77 78 80 82 83 84 81 75 67 62 60 59 59 59 59 59 59 60
66 67 70 68 65 69 64 62 62 66 64 64 67 69 69 70 70 71 70 70 70 72 73 75 77 79 79 81 81 81 80 76 68 61 58 58 58 58 59 58 59 60 62 64
73 71 71 69 67 70 66 64 65 66 68 66 66 68 68 68 69 71 71 70 72 74 76 77 79 80 80 79 77 73 67 61 56 55 55 56 56 56 56 58 60 62 64 65
70 68 67 69 69 66 63 60 61 64 65 64 63 63 65 68 68 69 71 73 76 77 79 80 79 78 73 70 65 58 55 54 52 53 54 55 55 56 58 60 62 64 65 65
63 63 68 69 68 58 57 62 63 64 63 62 61 63 68 71 72 74 75 76 78 77 75 71 67 64 60 56 54 53 52 53 53 53 54 56 56 58 60 62 63 63 63 64
63 64 61 51 51 55 58 60 63 64 62 61 64 68 71 74 75 75 76 72 67 63 61 59 56 53 52 53 54 55 55 54 54 54 56 57 58 60 63 63 62 61 62 60
55 49 50 52 56 60 60 62 63 64 63 66 69 70 71 73 70 66 63 60 58 56 54 52 50 50 52 54 56 56 55 55 56 57 58 60 62 64 61 60 60 59 56 55

GFSCGP_500_spd_039.txt.gz
Wind_Speed
35 34 29 31 32 31 32 30 27 27 31 32 31 31 31 31 30 30 28 27 26 26 26 26 27 29 29 29 30 31 32 33 35 36 39 39 39 41 41 42 43 44 46 48
34 32 30 33 34 34 31 31 30 31 34 37 36 33 31 30 28 27 26 27 27 27 28 31 30 31 32 33 33 34 36 38 40 42 42 44 45 45 46 47 47 49 50 52
37 37 35 35 35 34 34 35 34 38 39 40 39 36 31 30 29 27 26 27 28 29 30 31 31 30 30 32 33 35 36 36 38 40 42 46 48 49 50 51 52 53 52 53
39 37 36 35 36 37 38 38 40 41 42 42 39 39 29 30 30 28 29 30 29 30 33 32 31 32 33 36 37 37 38 38 38 40 43 46 48 50 52 54 56 57 55 56
42 43 41 42 40 43 43 41 42 43 42 42 40 39 35 32 30 29 30 31 31 33 32 34 35 37 38 39 40 41 40 39 39 43 45 47 49 52 55 58 59 61 62 65
43 42 44 43 41 43 46 44 43 42 43 43 36 39 42 37 32 33 32 30 30 33 37 41 41 39 39 40 42 43 42 41 44 47 50 52 54 57 59 60 62 63 64 63
46 43 43 43 44 42 39 38 41 43 43 41 39 41 39 38 37 35 35 37 36 36 38 38 38 41 43 42 43 43 45 46 50 53 56 57 59 60 61 63 64 66 67 68
45 40 39 38 37 35 36 40 42 43 42 42 43 43 40 38 35 35 35 39 40 40 40 40 42 44 48 48 52 50 52 55 57 58 60 62 64 67 69 69 68 69 71 72
45 43 40 37 37 37 38 41 39 43 46 47 45 44 43 43 43 42 40 38 40 40 41 45 46 48 51 53 57 58 58 60 60 63 66 68 71 73 74 75 75 75 76 77
45 43 40 39 39 41 42 43 45 47 47 47 48 48 47 48 47 45 43 42 43 45 47 50 53 56 56 57 60 60 60 63 65 68 73 75 75 76 76 76 77 79 79 79
43 44 43 44 44 41 43 45 47 47 48 49 48 51 54 54 50 48 46 46 49 50 51 55 58 58 60 59 62 64 66 69 70 72 76 78 78 80 81 82 81 81 80 79
43 46 47 46 47 48 48 47 48 49 50 49 52 54 58 55 52 51 51 52 55 58 58 59 59 59 61 62 64 65 69 72 74 76 79 80 81 82 83 83 82 81 80 80
43 51 49 48 50 50 51 51 50 50 51 55 56 57 58 53 53 54 55 54 56 58 59 62 62 65 66 67 69 71 74 76 78 80 82 81 83 83 82 81 81 82 82 83
51 54 57 57 56 56 56 56 56 55 58 58 59 56 58 55 53 54 57 55 58 61 62 63 65 67 69 70 72 75 78 80 82 83 81 82 82 81 81 81 82 83 83 85
57 58 59 57 60 62 63 63 60 61 61 61 56 59 54 50 51 56 59 58 62 62 62 65 70 72 72 74 76 79 82 83 83 81 79 79 80 80 81 81 82 83 84 85
61 64 65 67 64 67 68 66 64 63 62 60 58 59 53 53 58 60 59 60 62 64 66 70 72 74 76 77 79 80 78 77 76 76 78 79 79 80 81 82 83 84 85 86
65 65 62 66 62 67 68 67 63 59 61 56 60 56 56 54 54 56 58 61 64 68 70 73 75 75 75 75 75 74 75 76 77 78 78 79 80 81 82 84 85 85 82 77
49 53 59 60 62 71 67 64 63 63 63 62 61 59 58 58 58 60 62 65 68 70 72 73 74 73 72 72 72 75 76 78 78 78 78 81 83 84 85 84 81 74 67 62
60 61 63 60 62 66 67 67 64 66 68 68 65 65 65 63 63 64 65 68 68 69 71 72 71 70 70 72 74 75 76 77 78 80 83 84 84 82 80 73 66 60 56 55
59 60 62 64 66 69 66 64 67 69 71 71 69 66 69 69 69 65 66 65 68 71 72 72 71 70 71 73 75 76 77 81 82 84 84 80 76 70 64 60 56 55 55 56
56 61 62 62 63 68 63 65 69 74 71 72 73 71 71 70 70 68 67 67 69 71 71 69 70 71 71 74 76 78 80 81 80 77 73 67 62 59 56 54 54 55 56 57
54 61 64 68 66 68 65 68 71 71 72 70 68 69 70 67 65 67 66 64 66 68 69 71 71 72 75 77 75 73 71 70 69 66 61 58 57 55 54 55 55 57 58 60
55 57 61 61 60 61 63 64 66 67 67 67 69 69 67 64 60 61 61 62 64 67 70 72 74 74 69 65 64 65 65 64 62 59 57 57 56 56 56 56 57 59 60 61
57 57 61 64 64 63 65 67 67 68 69 68 66 63 61 58 59 60 61 64 67 69 71 69 65 63 61 61 61 60 59 58 57 57 58 59 58 58 59 58 59 60 61 62
56 57 57 58 59 63 64 63 64 65 66 62 59 60 60 60 60 63 65 68 68 67 60 59 60 59 57 57 57 55 55 57 58 59 59 60 60 60 60 60 60 61 63 62
59 63 65 65 64 64 64 62 61 61 58 58 58 58 59 62 65 67 67 64 59 56 57 58 57 56 55 54 54 54 54 54 56 57 58 58 58 58 58 59 60 61 59 60

GFSCGP_500_spd_042.txt.gz
Wind_Speed
37 38 31 33 36 34 31 29 27 28 31 32 31 30 31 30 30 32 31 30 29 28 26 26 25 24 25 28 29 29 29 31 32 32 32 32 32 34 37 37 39 42 44 46
35 32 31 33 33 33 31 31 30 31 34 35 34 33 33 32 33 33 32 30 29 28 27 27 28 27 29 32 33 34 34 33 33 35 35 34 34 35 37 39 43 46 47 49
36 36 34 35 35 36 35 35 34 36 36 38 37 37 34 35 35 33 32 31 31 30 30 29 28 29 31 33 35 36 36 37 36 36 38 41 42 42 43 44 47 50 53 55
39 36 35 35 35 36 38 36 38 39 40 41 39 42 35 33 34 30 30 30 32 32 33 32 30 30 30 31 35 37 39 40 41 42 43 42 44 47 47 49 52 54 57 60
39 39 38 40 38 42 43 40 42 42 44 46 44 41 41 33 30 29 30 32 34 34 34 33 32 31 32 34 36 36 39 39 39 40 42 44 46 49 51 52 55 58 61 63
42 41 43 44 41 41 43 46 45 45 48 52 45 41 45 32 29 29 31 33 33 33 33 32 33 35 36 38 40 40 40 43 44 46 48 50 52 54 56 57 59 62 64 65
42 46 45 46 47 45 43 42 45 48 48 46 41 41 42 38 32 30 31 32 32 32 32 34 37 39 39 40 42 43 44 46 49 52 53 55 55 57 61 61 63 66 67 70
51 49 46 47 47 45 43 44 44 44 43 41 41 44 39 38 38 36 35 33 32 32 34 35 37 38 41 44 47 46 47 51 53 55 58 60 58 60 62 65 68 71 74 75
53 56 52 46 44 45 43 44 36 39 40 42 42 40 40 40 39 39 37 36 36 37 38 40 42 45 47 47 48 50 54 56 57 57 60 63 64 65 67 70 73 76 78 79
51 54 53 49 48 49 47 40 40 40 39 40 42 41 42 42 43 41 41 40 39 38 39 42 45 48 50 51 51 54 56 59 59 59 61 64 67 69 69 73 76 78 81 84
46 47 49 49 48 44 44 43 41 40 43 44 44 40 41 44 46 47 46 42 42 43 46 49 50 51 53 53 56 57 57 58 60 62 65 67 68 72 75 77 80 82 84 85
42 45 48 47 47 46 47 48 46 47 43 43 46 47 50 50 50 49 48 49 46 47 49 51 52 54 54 58 61 59 58 59 64 66 66 69 73 76 80 83 84 85 84 83
41 45 45 47 49 50 51 50 44 43 44 44 49 52 55 56 54 51 51 52 53 53 54 56 58 58 59 62 63 62 61 65 67 69 71 74 78 82 85 87 85 83 82 82
49 49 48 46 46 45 46 47 48 50 55 56 56 56 57 56 57 57 56 58 57 58 58 57 58 60 63 64 64 66 67 69 71 73 76 80 84 87 87 86 84 83 82 83
52 51 52 47 48 52 52 52 55 61 61 63 59 65 60 57 60 63 61 59 60 60 60 60 62 63 61 62 67 70 71 73 75 79 81 84 86 85 85 83 82 83 84 85
56 58 56 57 53 55 60 59 59 61 64 70 69 66 61 56 60 62 61 63 61 61 63 63 61 62 63 68 71 72 74 77 79 82 82 81 80 82 82 82 83 84 84 86
60 59 58 60 55 58 66 62 65 66 67 67 68 59 59 59 60 62 62 65 62 61 62 63 62 63 68 71 73 75 78 79 81 80 78 78 79 79 81 83 84 85 86 86
57 57 57 60 58 65 67 64 65 66 65 60 58 61 59 60 62 64 65 65 65 65 65 64 65 67 70 73 75 78 78 78 77 75 74 76 79 81 83 86 87 85 81 77
54 53 55 58 60 62 64 66 63 58 58 60 59 59 62 63 65 65 67 69 69 69 67 67 67 70 73 75 76 76 75 74 73 73 75 79 82 86 85 82 79 76 71 66
55 55 58 61 64 67 62 62 62 63 64 63 60 62 64 66 68 65 69 71 72 72 70 69 70 72 73 73 73 70 70 72 72 76 81 83 80 75 75 74 70 66 63 60
52 54 55 57 59 61 60 62 67 67 64 63 63 65 65 66 68 68 68 69 69 68 70 70 70 71 72 72 70 69 70 72 77 79 74 70 70 70 69 66 63 60 58 58
52 53 55 54 57 60 59 61 62 62 63 63 62 64 65 65 65 66 66 68 68 69 70 69 69 69 69 68 69 71 73 72 69 67 67 66 67 66 63 60 59 59 60 59
54 54 56 55 55 58 59 58 59 60 61 61 62 62 61 62 63 66 68 70 72 70 67 67 66 66 67 69 70 71 65 63 63 64 64 64 63 62 61 59 59 59 59 59
51 54 53 51 54 57 59 62 64 67 67 67 65 65 65 65 65 67 67 66 65 64 63 62 62 65 68 71 67 60 59 60 62 61 61 61 61 61 60 60 60 61 61 61
52 54 55 57 59 60 62 63 62 63 64 65 65 66 66 65 63 63 63 63 62 60 62 65 67 68 64 60 58 58 59 60 60 59 59 59 59 59 60 61 61 61 59 58
58 57 58 58 61 61 63 65 65 64 63 63 62 60 60 60 60 60 60 60 61 63 66 66 65 59 56 57 58 58 59 58 57 57 57 57 57 57 57 57 56 55 57 57